[[{"header":{"parameterUnit":"m.s-1","parameterCategory":1,"la1":30.2991,"la2":30.254,"lo1":-89.0895,"lo2":-89.0444,"dy":0.0017,"dx":0.0017,"nx":28,"ny":28,"refTime":"2026-01-06T03:00:00:Z","depth":0,"parameterNumber":2,"parameterNumberName":"U-component_of_WINDS"},"data":[0,0,0,0,0,0,0,0,0,0,0,0,0,0,0,0,0,0,0,0,0,0,0,0,0,0,0,0,0,0,0,0,0,0,0,0,0,0,0,0,0,0,0,0,0,0,0,0,0,0,0,0,0,0,0,0,0,0,-1.1961,-1.1961,0,-1.1926,-1.1926,-1.1925,-1.1954,-1.1955,-1.1956,-1.1957,-1.1914,-1.1911,-1.1909,0,0,0,0,0,0,0,0,0,0,0,0,0,-1.2047,-1.2045,-1.1961,-1.1961,-1.196,-1.1926,-1.1926,-1.1925,-1.1954,-1.1955,-1.1957,-1.1958,-1.1914,-1.1912,-1.1909,0,0,0,0,0,0,0,0,0,0,0,0,0,-1.201,-1.2045,-1.1961,-1.1971,-1.1971,-1.1926,-1.1926,-1.1925,-1.1953,-1.1955,-1.1957,-1.1959,-1.1915,-1.1912,-1.1908,-1.185,0,0,-1.1898,-1.1896,0,0,0,0,0,0,0,0,-1.2012,-1.2007,-1.197,-1.197,-1.1971,-1.1947,-1.194,-1.19,-1.1953,-1.196,-1.1958,-1.196,-1.1922,-1.1919,-1.1908,-1.1848,-1.1846,-1.1897,-1.1895,-1.1894,-1.1893,0,0,0,0,0,0,0,-1.2015,-1.2009,-1.1947,-1.1969,-1.197,-1.1975,-1.1971,-1.1932,-1.1931,-1.1959,-1.1961,-1.1957,-1.1923,-1.1911,-1.1907,-1.1845,-1.1898,-1.1894,-1.1892,-1.1891,-1.1736,-1.1734,0,0,0,0,0,0,-1.2017,-1.2011,-1.1948,-1.1946,-1.1997,-1.1972,-1.1968,-1.1952,-1.1932,-1.193,-1.1956,-1.1959,-1.1916,-1.1911,-1.1905,-1.1835,-1.1894,-1.1891,-1.1889,-1.1738,-1.1736,-1.1733,0,0,0,0,0,0,-1.2019,-1.2012,-1.195,-1.1979,-1.1972,-1.1968,-1.195,-1.195,-1.1939,-1.1929,-1.1928,-1.1944,-1.1917,-1.191,-1.1864,-1.1834,-1.1889,-1.1886,-1.174,-1.1737,-1.1734,-1.1694,0,0,0,0,0,0,-1.2022,-1.2012,-1.1991,-1.1978,-1.197,-1.1911,-1.1948,-1.1948,-1.1933,-1.1937,-1.1918,-1.1916,-1.1918,-1.1869,-1.1861,-1.183,-1.1883,-1.1743,-1.1739,-1.1735,-1.1698,-1.169,-1.1683,0,0,0,0,0,-1.2024,-1.1979,-1.199,-1.1982,-1.1944,-1.1909,-1.1904,-1.1909,-1.1931,-1.1909,-1.1903,-1.1917,-1.184,-1.1864,-1.1855,-1.1823,-1.1745,-1.174,-1.1736,-1.1701,-1.1691,-1.1683,0,0,0,0,0,0,-1.1985,-1.1978,-1.1989,-1.1939,-1.1925,-1.1914,-1.1886,-1.1899,-1.1876,-1.1879,-1.1885,-1.188,-1.1832,-1.1823,-1.1851,-1.1765,-1.1795,-1.1789,-1.1772,-1.1763,-1.1755,-1.1757,-1.188,0,0,0,0,0,-1.1971,-1.1946,-1.194,-1.1896,-1.1889,-1.1889,-1.1874,-1.188,-1.1864,-1.1857,-1.1847,-1.1829,-1.1801,-1.1782,-1.1755,-1.1698,-1.1693,-1.1671,-1.1664,-1.1658,-1.1651,-1.1619,-1.1609,-1.1718,-1.1718,-1.1718,0,0,-1.1941,-1.1934,-1.1916,-1.1888,-1.1877,-1.1849,-1.1883,-1.1851,-1.1829,-1.1851,-1.1807,-1.18,-1.178,-1.1728,-1.1705,-1.1719,-1.162,-1.1652,-1.1647,-1.1643,-1.1613,-1.1603,-1.1593,-1.1715,-1.1716,-1.1716,0,0,-1.187,-1.1864,-1.1826,-1.1816,-1.1801,-1.1802,-1.1793,-1.1781,-1.1778,-1.1735,-1.1751,-1.1724,-1.1675,-1.1661,-1.1647,-1.1574,-1.1585,-1.1565,-1.1525,-1.1494,-1.1485,-1.1477,-1.1449,-1.1439,-1.1559,-1.1559,-1.1559,0,-1.1833,-1.1793,-1.1804,-1.1772,-1.1758,-1.1781,-1.1742,-1.1731,-1.1706,-1.1695,-1.1714,-1.1654,-1.1642,-1.1587,-1.1569,-1.1558,-1.1546,-1.1565,-1.1486,-1.1478,-1.1471,-1.1444,-1.1434,-1.1556,-1.1557,-1.1557,-1.1557,0,-1.1747,-1.1719,-1.169,-1.167,-1.1653,-1.1617,-1.1622,-1.1603,-1.1612,-1.161,-1.1566,-1.1554,-1.1525,-1.1513,-1.1519,-1.1458,-1.1468,-1.1486,-1.1515,-1.1458,-1.1433,-1.1423,-1.1553,-1.1554,-1.1555,-1.1555,0,0,-1.1647,-1.1636,-1.1625,-1.1616,-1.1603,-1.1579,-1.1545,-1.152,-1.1503,-1.1487,-1.1456,-1.1416,-1.1433,-1.1418,-1.1423,-1.1396,-1.1337,-1.1417,-1.1417,-1.1401,-1.1267,-1.1251,-1.1239,-1.1347,-1.1345,-1.1343,-1.1268,0,-1.1574,-1.1516,-1.1526,-1.1468,-1.1442,-1.1465,-1.1434,-1.1421,-1.142,-1.1395,-1.1393,-1.1364,-1.139,-1.1381,-1.1355,-1.135,-1.131,-1.1356,-1.1315,-1.1313,-1.1316,-1.1227,-1.1209,-1.1139,-1.1258,-1.1257,-1.1256,0,-1.148,-1.1463,-1.1404,-1.1396,-1.1385,-1.1357,-1.1335,-1.1313,-1.1299,-1.13,-1.1284,-1.1295,-1.1258,-1.1292,-1.124,-1.1271,-1.1256,-1.1251,-1.1248,-1.1242,-1.1278,-1.1215,-1.1117,-1.1105,-1.1241,-1.1242,-1.1243,0,-1.141,-1.1373,-1.1332,-1.1324,-1.1314,-1.1294,-1.1288,-1.1277,-1.1261,-1.1242,-1.1232,-1.1208,-1.1193,-1.1174,-1.1177,-1.1202,-1.1124,-1.1158,-1.1121,-1.1121,-1.11,-1.1101,-1.0995,-1.1096,-1.1096,-1.1096,-1.1096,0,-1.1326,-1.1287,-1.1301,-1.1275,-1.1233,-1.1246,-1.1203,-1.12,-1.119,-1.1163,-1.1181,-1.1155,-1.1163,-1.1137,-1.114,-1.1096,-1.109,-1.1087,-1.1088,-1.1084,-1.1083,-1.1071,-1.1074,-1.1093,-1.1094,-1.1094,-1.1095,0,-1.1238,-1.1246,-1.1203,-1.1198,-1.1196,-1.1165,-1.116,-1.1135,-1.1137,-1.1103,-1.1095,-1.1097,-1.1067,-1.107,-1.1036,-1.1038,-1.0983,-1.099,-1.0987,-1.0988,-1.095,-1.0952,-1.0829,-1.0813,-1.0927,-1.0926,-1.0925,0,-1.1182,-1.1154,-1.1147,-1.1132,-1.1126,-1.1101,-1.1086,-1.1098,-1.1082,-1.1065,-1.1042,-1.1015,-1.0993,-1.0944,-1.0941,-1.0915,-1.092,-1.0879,-1.0916,-1.0913,-1.0916,-1.0916,-1.0913,-1.087,-1.0869,-1.0868,-1.0867,0,-1.1081,-1.1087,-1.1066,-1.1047,-1.103,-1.1015,-1.1001,-1.0987,-1.0998,-1.0978,-1.095,-1.0933,-1.0901,-1.0872,-1.0848,-1.084,-1.0854,-1.0857,-1.0846,-1.0839,-1.0838,-1.0836,-1.0964,-1.0858,-1.0859,-1.086,-1.086,-1.086,-1.1005,-1.0981,-1.0973,-1.095,-1.0942,-1.0929,-1.0906,-1.0906,-1.0884,-1.0859,-1.0868,-1.0835,-1.0823,-1.0792,-1.0783,-1.0756,-1.077,-1.0755,-1.0751,-1.0746,-1.0741,-1.0846,-1.0752,-1.0752,-1.0752,-1.0752,-1.0752,0,-1.0903,-1.09,-1.0879,-1.0861,-1.0842,-1.0862,-1.0848,-1.083,-1.0802,-1.0791,-1.077,-1.0737,-1.0711,-1.0707,-1.0681,-1.066,-1.0666,-1.0653,-1.0652,-1.065,-1.073,-1.0741,-1.0649,-1.0649,-1.0649,-1.0649,-1.0649,-1.0649,-1.0847,-1.0807,-1.0812,-1.0768,-1.0765,-1.0735,-1.0725,-1.0713,-1.0704,-1.0668,-1.0647,-1.0646,-1.0637,-1.0611,-1.0588,-1.0587,-1.0575,-1.0559,-1.056,-1.0634,-1.0644,-1.0654,-1.0664,-1.0557,-1.0557,-1.0482,-1.0481,-1.048]},{"header":{"parameterUnit":"m.s-1","parameterCategory":1,"la1":30.2991,"la2":30.254,"lo1":-89.0895,"lo2":-89.0444,"dy":0.0017,"dx":0.0017,"nx":28,"ny":28,"refTime":"2026-01-06T03:00:00:Z","depth":0,"parameterNumber":3,"parameterNumberName":"V-component_of_WINDS"},"data":[0,0,0,0,0,0,0,0,0,0,0,0,0,0,0,0,0,0,0,0,0,0,0,0,0,0,0,0,0,0,0,0,0,0,0,0,0,0,0,0,0,0,0,0,0,0,0,0,0,0,0,0,0,0,0,0,0,0,2.831,2.831,0,2.8266,2.8266,2.8265,2.8199,2.8198,2.8197,2.8196,2.8151,2.8151,2.815,0,0,0,0,0,0,0,0,0,0,0,0,0,2.8337,2.8337,2.831,2.831,2.8309,2.8266,2.8266,2.8265,2.8199,2.8198,2.8196,2.8195,2.8151,2.8151,2.815,0,0,0,0,0,0,0,0,0,0,0,0,0,2.8312,2.8337,2.831,2.8271,2.8267,2.8267,2.8266,2.8265,2.82,2.8198,2.8196,2.8194,2.8151,2.8151,2.815,2.8185,0,0,2.815,2.815,0,0,0,0,0,0,0,0,2.8314,2.8311,2.8277,2.8274,2.8269,2.8236,2.8259,2.8238,2.82,2.8225,2.8196,2.8194,2.8181,2.8178,2.8174,2.8183,2.8181,2.815,2.815,2.815,2.815,0,0,0,0,0,0,0,2.8316,2.8313,2.8293,2.8277,2.8272,2.8256,2.825,2.8254,2.8213,2.8223,2.8218,2.8214,2.8178,2.8174,2.8172,2.818,2.815,2.815,2.815,2.815,2.8215,2.8217,0,0,0,0,0,0,2.8323,2.8315,2.8294,2.8292,2.8288,2.8257,2.825,2.8249,2.8213,2.8206,2.8215,2.8211,2.8175,2.8172,2.817,2.8209,2.815,2.815,2.815,2.8213,2.8216,2.8218,0,0,0,0,0,0,2.8324,2.8322,2.8296,2.8302,2.8297,2.8258,2.8257,2.8249,2.8245,2.8207,2.82,2.8219,2.8173,2.817,2.8182,2.8206,2.815,2.8149,2.8211,2.8214,2.8217,2.8286,0,0,0,0,0,0,2.8325,2.8323,2.8335,2.8303,2.8297,2.8309,2.8258,2.8249,2.8244,2.8238,2.8208,2.8202,2.8172,2.8182,2.8182,2.8205,2.8149,2.8209,2.8213,2.8216,2.8281,2.8291,2.8299,0,0,0,0,0,2.8326,2.8357,2.8336,2.8334,2.8312,2.831,2.8307,2.8272,2.8247,2.8259,2.8235,2.8203,2.8203,2.8184,2.8183,2.8206,2.8207,2.8211,2.8215,2.8277,2.8289,2.8298,0,0,0,0,0,0,2.8393,2.8352,2.8329,2.8349,2.8334,2.8299,2.8314,2.8285,2.8277,2.8271,2.8228,2.8222,2.8239,2.8223,2.8203,2.8238,2.82,2.8204,2.8248,2.8258,2.8267,2.8271,2.8149,0,0,0,0,0,2.8411,2.8412,2.8375,2.8397,2.8391,2.8354,2.8352,2.8326,2.8308,2.8301,2.8278,2.8262,2.8258,2.8257,2.8252,2.8278,2.8271,2.8293,2.8302,2.8309,2.8314,2.8327,2.8337,2.8231,2.8231,2.8231,0,0,2.8446,2.8424,2.8428,2.841,2.8395,2.8398,2.8349,2.8354,2.8356,2.8302,2.8312,2.8294,2.8273,2.8292,2.8299,2.828,2.8341,2.8315,2.8321,2.8321,2.8333,2.8343,2.8352,2.8234,2.8233,2.8233,0,0,2.8514,2.8496,2.8513,2.8498,2.8476,2.8451,2.8455,2.8425,2.8411,2.842,2.8379,2.8381,2.8375,2.8362,2.8355,2.8416,2.8387,2.8416,2.8462,2.8475,2.8484,2.8491,2.8514,2.8523,2.842,2.842,2.842,0,2.8561,2.8564,2.8525,2.8533,2.8527,2.8477,2.8494,2.8482,2.8459,2.8456,2.8434,2.8427,2.8409,2.8425,2.844,2.8435,2.8439,2.842,2.8486,2.8492,2.8499,2.852,2.8529,2.8424,2.8423,2.8423,2.8423,0,2.8624,2.8627,2.8642,2.8622,2.8617,2.863,2.8592,2.8592,2.8566,2.8544,2.8554,2.853,2.852,2.8521,2.8496,2.8534,2.8522,2.8494,2.8455,2.8513,2.8533,2.8541,2.8429,2.8428,2.8427,2.8426,0,0,2.8734,2.8691,2.8698,2.8688,2.8659,2.8661,2.867,2.866,2.8661,2.8646,2.8654,2.865,2.8624,2.8615,2.8588,2.86,2.8651,2.8569,2.8568,2.8587,2.8692,2.8715,2.8725,2.863,2.8631,2.8633,2.8694,0,2.8797,2.8812,2.8776,2.88,2.8802,2.8755,2.8763,2.8747,2.8725,2.8724,2.87,2.8699,2.8663,2.8658,2.8667,2.8643,2.8672,2.8638,2.8638,2.8638,2.8646,2.8735,2.876,2.8819,2.8701,2.8703,2.8703,0,2.8872,2.8862,2.8886,2.8856,2.8855,2.8864,2.8852,2.885,2.883,2.8814,2.8805,2.8773,2.878,2.8742,2.8752,2.873,2.8727,2.8715,2.8717,2.8717,2.8676,2.8739,2.8837,2.8847,2.8715,2.8714,2.8713,0,2.8952,2.8944,2.8957,2.895,2.8915,2.8922,2.8908,2.8886,2.8882,2.8871,2.8868,2.8857,2.8852,2.8845,2.8811,2.8786,2.8826,2.8784,2.8813,2.8814,2.8825,2.8825,2.8926,2.8821,2.882,2.882,2.882,0,2.9027,2.9044,2.8993,2.9001,2.9019,2.8977,2.8996,2.8977,2.8957,2.8961,2.8919,2.8923,2.8877,2.8877,2.885,2.8863,2.886,2.8848,2.8841,2.8853,2.8855,2.8852,2.8848,2.8823,2.8822,2.8822,2.8821,0,2.9121,2.9087,2.9098,2.9064,2.9055,2.907,2.904,2.9047,2.9022,2.9028,2.9027,2.8988,2.8985,2.895,2.894,2.8922,2.8946,2.893,2.8953,2.8949,2.898,2.8978,2.9083,2.9095,2.8981,2.8983,2.8983,0,2.9172,2.9184,2.915,2.915,2.9137,2.9137,2.9133,2.9092,2.9089,2.9067,2.9076,2.907,2.9063,2.906,2.9032,2.9023,2.9008,2.9045,2.9007,2.9018,2.901,2.9011,2.9012,2.9054,2.9056,2.9057,2.9058,0,2.9267,2.9249,2.9244,2.9234,2.923,2.9219,2.9206,2.9208,2.9163,2.9162,2.9159,2.9153,2.9142,2.9137,2.9123,2.9108,2.9076,2.907,2.9076,2.909,2.9103,2.9098,2.8977,2.9068,2.9067,2.9067,2.9066,2.9066,2.9341,2.935,2.9328,2.9324,2.931,2.9298,2.9303,2.9279,2.9275,2.9263,2.9239,2.924,2.9218,2.9197,2.9184,2.9184,2.9165,2.9174,2.9176,2.918,2.9187,2.9102,2.9181,2.9181,2.918,2.918,2.918,0,2.9435,2.9419,2.9415,2.9399,2.9396,2.9364,2.9348,2.9348,2.9349,2.9332,2.9326,2.9322,2.9316,2.9286,2.9277,2.9283,2.9268,2.9282,2.9282,2.9279,2.9204,2.92,2.9294,2.9294,2.9294,2.9294,2.9294,2.9294,2.9484,2.9498,2.9477,2.9483,2.9465,2.9466,2.9459,2.9449,2.9435,2.9433,2.9428,2.9408,2.9386,2.9375,2.9368,2.9359,2.9359,2.9378,2.9365,2.9296,2.9285,2.9274,2.927,2.9378,2.9378,2.9441,2.9441,2.9442]}]]